Cahokia, IL

9:11 PM CST on December 07, 2019 (GMT -0600)
Saint Louis Downtown

Weather History for KCPS - October, 2019

Change the Weather History Date:

Tuesday, October 8, 2019

  Actual Average Record
Temperature  
Mean Temperature 57 °F -  
Max Temperature 75 °F 67 °F 89 °F (2007)
Min Temperature 41 °F 51 °F 32 °F (2000)
Degree Days  
Heating Degree Days 8    
Growing Degree Days 7 (Base 50)    
Moisture  
Dew Point 43 °F    
Average Humidity 73    
Maximum Humidity 100    
Minimum Humidity 30    
Precipitation  
Precipitation 0.00 in - - ()
Sea Level Pressure  
Sea Level Pressure 30.17 in    
Wind  
Wind Speed 1 mph (SSE)    
Max Wind Speed 10 mph    
Max Gust Speed -    
Visibility 9 miles    
Events      
Averages and records for this station are not official NWS values.
T = Trace of Precipitation, MM = Missing Value Source: NWS Daily Summary

Daily Weather History Graph

Daily Weather History Graph

Search for Another Location

Airport or City:

Astronomy

Oct. 08, 2019 Rise Set
Actual Time 7:02 AM CDT 6:33 PM CDT
Civil Twilight 6:36 AM CDT 6:59 PM CDT
Nautical Twilight 6:05 AM CDT 7:30 PM CDT
Astronomical Twilight 5:34 AM CDT 8:00 PM CDT
Moon 4:27 PM CDT 1:56 AM CDT
Length of Visible Light 12h 23m
Length of Day
11h 30m
Waxing Gibbous, 78% of the Moon is Illuminated
Oct 8
Waxing Gibbous
Oct 13
Full
Oct 21
Last Quarter
Oct 27
New
Nov 4
First Quarter

Hourly Weather History & Observations

Time (CDT) Temp. Dew Point Humidity Pressure Visibility Wind Dir Wind Speed Gust Speed Precip Events Conditions
12:53 AM 46.0 °F 44.1 °F 93% 30.21 in 10.0 mi Calm Calm - N/A   Clear
1:53 AM 43.0 °F 42.1 °F 97% 30.21 in 10.0 mi Calm Calm - N/A   Clear
2:53 AM 43.0 °F 42.1 °F 97% 30.19 in 10.0 mi Calm Calm - N/A   Clear
3:53 AM 42.1 °F 41.0 °F 96% 30.19 in 2.5 mi Calm Calm - N/A   Clear
4:02 AM 42.1 °F 41.0 °F 96% 30.19 in 10.0 mi Calm Calm - N/A   Clear
4:53 AM 43.0 °F 42.1 °F 97% 30.20 in 10.0 mi Calm Calm - N/A   Clear
5:48 AM 41.0 °F 39.2 °F 93% 30.20 in 2.0 mi Calm Calm - N/A   Clear
5:53 AM 42.1 °F 39.9 °F 92% 30.20 in 1.8 mi Calm Calm - N/A   Clear
6:08 AM 42.1 °F 39.9 °F 92% 30.20 in 2.5 mi Calm Calm - N/A   Clear
6:15 AM 43.0 °F 41.0 °F 93% 30.20 in 10.0 mi Calm Calm - N/A   Clear
6:53 AM 41.0 °F 39.9 °F 96% 30.21 in 10.0 mi Calm Calm - N/A   Clear
7:53 AM 44.1 °F 44.1 °F 100% 30.22 in 10.0 mi Calm Calm - N/A   Clear
8:53 AM 54.0 °F 46.9 °F 77% 30.23 in 10.0 mi Calm Calm - N/A   Clear
10:53 AM 66.9 °F 48.9 °F 52% 30.22 in 10.0 mi Variable 3.5 mph - N/A   Clear
11:53 AM 72.0 °F 41.0 °F 33% 30.21 in 10.0 mi SSE 10.4 mph - N/A   Clear
12:53 PM 73.0 °F 41.0 °F 31% 30.19 in 10.0 mi South 6.9 mph - N/A   Clear
1:53 PM 73.9 °F 41.0 °F 30% 30.15 in 10.0 mi SE 9.2 mph - N/A   Clear
2:53 PM 73.9 °F 42.1 °F 32% 30.13 in 10.0 mi Variable 5.8 mph - N/A   Clear
3:53 PM 73.9 °F 42.1 °F 32% 30.12 in 10.0 mi Variable 4.6 mph - N/A   Clear
4:53 PM 73.9 °F 43.0 °F 33% 30.10 in 10.0 mi SE 5.8 mph - N/A   Clear
5:53 PM 70.0 °F 46.0 °F 42% 30.09 in 10.0 mi ESE 4.6 mph - N/A   Clear
6:53 PM 64.0 °F 45.0 °F 50% 30.09 in 10.0 mi Calm Calm - N/A   Clear
7:53 PM 55.0 °F 46.9 °F 74% 30.10 in 10.0 mi Calm Calm - N/A   Clear
8:53 PM 54.0 °F 46.9 °F 77% 30.10 in 10.0 mi SSE 3.5 mph - N/A   Clear
9:53 PM 50.0 °F 45.0 °F 83% 30.11 in 10.0 mi Calm Calm - N/A   Clear
10:53 PM 48.9 °F 45.0 °F 86% 30.11 in 10.0 mi Calm Calm - N/A   Clear
11:53 PM 48.0 °F 45.0 °F 89% 30.10 in 10.0 mi Calm Calm - N/A   Clear